| time (UTC) | temp F | wind direction | speed MPH | gust MPH | rain 1hr in | rain 24hr in | rain mn in | humidity % | barometer mb |
| 20260905080156 | 62 | 180 | 8.0 | 10.0 | 0.00 | 0.28 | 0.28 | 88 | |
| 20260905075656 | 62 | 180 | 8.0 | 11.0 | 0.00 | 0.28 | 0.28 | 83 | |
| 20260905075156 | 63 | 180 | 4.0 | 10.0 | 0.00 | 0.28 | 0.28 | 82 | |
| 20260905074656 | 63 | 180 | 1.0 | 9.0 | 0.00 | 0.28 | 0.28 | 81 | |
| 20260905074156 | 63 | 180 | 6.0 | 10.0 | 0.00 | 0.28 | 0.28 | 80 | |
| 20260905073656 | 63 | 180 | 0.0 | 7.0 | 0.00 | 0.28 | 0.28 | 80 | |
| 20260905073156 | 63 | 180 | 0.0 | 11.0 | 0.03 | 0.28 | 0.28 | 80 | |
| 20260905072656 | 63 | 180 | 2.0 | 11.0 | 0.03 | 0.28 | 0.28 | 78 | |
| 20260905072156 | 63 | 180 | 5.0 | 16.0 | 0.03 | 0.28 | 0.28 | 75 | |
| 20260905071656 | 64 | 180 | 3.0 | 11.0 | 0.03 | 0.28 | 0.28 | 77 | |
| 20260905071156 | 64 | 180 | 4.0 | 4.0 | 0.03 | 0.28 | 0.28 | 77 | |
| 20260905070656 | 63 | 180 | 0.0 | 14.0 | 0.03 | 0.28 | 0.28 | 75 | |
| 20260905070156 | 64 | 180 | 4.0 | 8.0 | 0.03 | 0.28 | 0.28 | 74 | |
| 20260905065656 | 64 | 180 | 0.0 | 7.0 | 0.03 | 0.28 | 0.28 | 76 | |
| 20260905065156 | 64 | 180 | 0.0 | 11.0 | 0.03 | 0.28 | 0.28 | 75 | |
| 20260905064656 | 63 | 180 | 11.0 | 11.0 | 0.03 | 0.28 | 0.28 | 75 | |
| 20260905064156 | 64 | 180 | 1.0 | 7.0 | 0.03 | 0.28 | 0.28 | 76 | |
| 20260905063656 | 64 | 180 | 1.0 | 9.0 | 0.03 | 0.28 | 0.28 | 76 | |
| 20260905063156 | 64 | 180 | 3.0 | 5.0 | 0.00 | 0.25 | 0.25 | 77 | |
| 20260905062656 | 64 | 180 | 0.0 | 8.0 | 0.00 | 0.25 | 0.25 | 76 | |
| 20260905062156 | 64 | 180 | 3.0 | 10.0 | 0.00 | 0.25 | 0.25 | 80 | |
| 20260905061656 | 64 | 180 | 2.0 | 9.0 | 0.00 | 0.25 | 0.25 | 81 | |
| 20260905061156 | 64 | 180 | 4.0 | 9.0 | 0.00 | 0.25 | 0.25 | 83 | |
| 20260905060656 | 63 | 180 | 5.0 | 8.0 | 0.00 | 0.25 | 0.25 | 83 | |
| 20260905060156 | 63 | 180 | 6.0 | 8.0 | 0.00 | 0.25 | 0.25 | 84 | |
| 20260905055656 | 64 | 180 | 5.0 | 9.0 | 0.00 | 0.25 | 0.25 | 83 | |
| 20260905055156 | 64 | 180 | 3.0 | 10.0 | 0.00 | 0.25 | 0.25 | 83 | |
| 20260905054658 | 64 | 180 | 6.0 | 7.0 | 0.00 | 0.25 | 0.25 | 83 | |
| 20260905054156 | 64 | 180 | 2.0 | 11.0 | 0.00 | 0.25 | 0.25 | 83 | |
| 20260905053656 | 63 | 180 | 0.0 | 9.0 | 0.00 | 0.25 | 0.25 | 85 | |
| 20260905053156 | 63 | 180 | 5.0 | 6.0 | 0.00 | 0.25 | 0.25 | 86 | |
| 20260905052656 | 63 | 180 | 0.0 | 4.0 | 0.00 | 0.25 | 0.25 | 89 | |
| 20260905052156 | 63 | 180 | 1.0 | 6.0 | 0.00 | 0.25 | 0.25 | 90 | |
| 20260905051656 | 62 | 180 | 0.0 | 3.0 | 0.00 | 0.25 | 0.25 | 90 | |
| 20260905051156 | 62 | 180 | 0.0 | 7.0 | 0.00 | 0.25 | 0.25 | 90 | |
| 20260905050656 | 62 | 180 | 0.0 | 2.0 | 0.00 | 0.25 | 0.25 | 91 | |
| 20260905050156 | 62 | 180 | 0.0 | 3.0 | 0.01 | 0.25 | 0.25 | 91 | |
| 20260905045656 | 62 | 180 | 0.0 | 3.0 | 0.02 | 0.25 | 0.25 | 90 | |
| 20260905045156 | 62 | 180 | 0.0 | 3.0 | 0.09 | 0.25 | 0.25 | 90 | |
| 20260905044656 | 62 | 180 | 0.0 | 2.0 | 0.09 | 0.25 | 0.25 | 89 | |
| 20260905044156 | 62 | 180 | 2.0 | 3.0 | 0.09 | 0.25 | 0.25 | 89 | |
| 20260905043656 | 62 | 180 | 2.0 | 6.0 | 0.09 | 0.25 | 0.25 | 89 | |
| 20260905043156 | 62 | 180 | 0.0 | 3.0 | 0.09 | 0.25 | 0.25 | 89 | |
| 20260905042656 | 62 | 180 | 0.0 | 6.0 | 0.09 | 0.25 | 0.25 | 89 | |
| 20260905042156 | 62 | 180 | 0.0 | 2.0 | 0.09 | 0.25 | 0.25 | 89 | |
| 20260905041656 | 62 | 180 | 0.0 | 0.0 | 0.10 | 0.25 | 0.25 | 88 | |
| 20260905041156 | 62 | 180 | 0.0 | 2.0 | 0.10 | 0.25 | 0.25 | 88 | |
| 20260905040656 | 62 | 180 | 0.0 | 4.0 | 0.11 | 0.25 | 0.25 | 88 | |
| 20260905040156 | 62 | 180 | 0.0 | 5.0 | 0.11 | 0.24 | 0.24 | 87 | |
| 20260905035656 | 62 | 180 | 0.0 | 2.0 | 0.16 | 0.23 | 0.22 | 87 | |
| 20260905035156 | 63 | 180 | 0.0 | 3.0 | 0.09 | 0.16 | 0.16 | 87 | |
| 20260905034656 | 62 | 180 | 0.0 | 7.0 | 0.09 | 0.16 | 0.16 | 86 | |
| 20260905034156 | 63 | 180 | 0.0 | 4.0 | 0.09 | 0.16 | 0.16 | 86 | |
| 20260905033656 | 62 | 180 | 0.0 | 1.0 | 0.09 | 0.16 | 0.16 | 85 | |
| 20260905033156 | 63 | 180 | 0.0 | 1.0 | 0.09 | 0.16 | 0.16 | 85 | |
| 20260905032656 | 63 | 180 | 0.0 | 7.0 | 0.09 | 0.16 | 0.16 | 86 | |
| 20260905032156 | 64 | 180 | 0.0 | 5.0 | 0.09 | 0.16 | 0.16 | 84 | |
| 20260905031656 | 64 | 180 | 1.0 | 4.0 | 0.08 | 0.15 | 0.15 | 82 | |
| 20260905031156 | 64 | 180 | 3.0 | 8.0 | 0.08 | 0.15 | 0.15 | 80 | |
| 20260905030656 | 64 | 180 | 3.0 | 12.0 | 0.07 | 0.14 | 0.14 | 73 | |
| 20260905030157 | 65 | 180 | 6.0 | 19.0 | 0.06 | 0.13 | 0.13 | 69 | |
| 20260905025656 | 66 | 180 | 8.0 | 8.0 | 0.04 | 0.07 | 0.07 | 71 | |
| 20260905025157 | 66 | 180 | 4.0 | 11.0 | 0.06 | 0.07 | 0.07 | 71 | |
| 20260905024656 | 66 | 180 | 4.0 | 7.0 | 0.06 | 0.07 | 0.07 | 76 | |
| 20260905024157 | 66 | 180 | 0.0 | 8.0 | 0.06 | 0.07 | 0.07 | 79 | |
| 20260905023657 | 66 | 180 | 0.0 | 7.0 | 0.06 | 0.07 | 0.07 | 81 | |
| 20260905023157 | 65 | 180 | 0.0 | 7.0 | 0.06 | 0.07 | 0.07 | 83 | |
| 20260905022657 | 65 | 180 | 4.0 | 9.0 | 0.06 | 0.07 | 0.07 | 85 | |
| 20260905022157 | 65 | 180 | 0.0 | 0.0 | 0.06 | 0.07 | 0.07 | 82 | |
| 20260905021657 | 66 | 180 | 0.0 | 0.0 | 0.06 | 0.07 | 0.07 | 79 | |
| 20260905021157 | 67 | 180 | 0.0 | 0.0 | 0.06 | 0.07 | 0.07 | 77 | |
| 20260905020657 | 67 | 180 | 0.0 | 2.0 | 0.06 | 0.07 | 0.07 | 75 | |
| 20260905020157 | 68 | 180 | 1.0 | 7.0 | 0.06 | 0.07 | 0.07 | 73 | |
| 20260905015657 | 68 | 180 | 3.0 | 8.0 | 0.02 | 0.03 | 0.03 | 71 | |
| 20260905015157 | 68 | 180 | 0.0 | 5.0 | 0.00 | 0.01 | 0.01 | 70 | |
| 20260905014657 | 68 | 180 | 5.0 | 7.0 | 0.00 | 0.01 | 0.01 | 68 | |
| 20260905014157 | 68 | 180 | 0.0 | 2.0 | 0.00 | 0.01 | 0.01 | 67 | |
| 20260905013657 | 68 | 180 | 1.0 | 7.0 | 0.00 | 0.01 | 0.01 | 67 | |
| 20260905013157 | 68 | 180 | 0.0 | 5.0 | 0.00 | 0.01 | 0.01 | 67 | |
| 20260905012657 | 68 | 180 | 0.0 | 4.0 | 0.00 | 0.01 | 0.01 | 69 | |
| 20260905012157 | 68 | 180 | 1.0 | 3.0 | 0.00 | 0.01 | 0.01 | 67 | |
| 20260905011657 | 68 | 180 | 0.0 | 2.0 | 0.00 | 0.01 | 0.01 | 68 | |
| 20260905011157 | 68 | 180 | 0.0 | 3.0 | 0.00 | 0.01 | 0.01 | 68 | |
| 20260905010657 | 68 | 180 | 0.0 | 9.0 | 0.00 | 0.01 | 0.01 | 68 | |
| 20260905010157 | 67 | 180 | 0.0 | 10.0 | 0.00 | 0.01 | 0.01 | 72 | |
| 20260905005657 | 65 | 180 | 1.0 | 9.0 | 0.00 | 0.01 | 0.01 | 81 | |
| 20260905005157 | 64 | 180 | 0.0 | 5.0 | 0.00 | 0.01 | 0.01 | 88 | |
| 20260905004700 | 63 | 180 | 0.0 | 0.0 | 0.00 | 0.01 | 0.01 | 90 | |
| 20260905004157 | 63 | 180 | 0.0 | 0.0 | 0.00 | 0.01 | 0.01 | 91 | |
| 20260905003657 | 63 | 180 | 0.0 | 0.0 | 0.00 | 0.01 | 0.01 | 92 | |
| 20260905003157 | 63 | 180 | 0.0 | 0.0 | 0.00 | 0.01 | 0.01 | 92 | |
| 20260905002657 | 63 | 180 | 0.0 | 2.0 | 0.00 | 0.01 | 0.01 | 91 | |
| 20260905002157 | 62 | 180 | 0.0 | 3.0 | 0.00 | 0.01 | 0.01 | 91 | |
| 20260905001657 | 62 | 180 | 0.0 | 0.0 | 0.00 | 0.01 | 0.01 | 94 | |
| 20260905001157 | 63 | 180 | 0.0 | 0.0 | 0.00 | 0.01 | 0.01 | 94 | |
| 20260905000657 | 63 | 180 | 0.0 | 0.0 | 0.00 | 0.01 | 0.01 | 93 | |
| 20260905000157 | 63 | 180 | 0.0 | 0.0 | 0.00 | 0.01 | 0.01 | 93 | |
| 20260904235657 | 63 | 180 | 0.0 | 0.0 | 0.00 | 0.01 | 0.01 | 94 | |
| 20260904235157 | 62 | 180 | 0.0 | 0.0 | 0.00 | 0.01 | 0.01 | 94 | |
| 20260904234657 | 62 | 180 | 0.0 | 0.0 | 0.00 | 0.01 | 0.01 | 95 | |
| 20260904234157 | 62 | 180 | 0.0 | 0.0 | 0.00 | 0.01 | 0.01 | 95 | |
| 20260904233657 | 62 | 180 | 0.0 | 0.0 | 0.00 | 0.01 | 0.01 | 96 | |
| 20260904233157 | 61 | 180 | 0.0 | 0.0 | 0.00 | 0.01 | 0.01 | 96 | |
| 20260904232657 | 61 | 180 | 0.0 | 0.0 | 0.00 | 0.01 | 0.01 | 98 | |
| 20260904232157 | 60 | 180 | 0.0 | 0.0 | 0.00 | 0.01 | 0.01 | 98 | |
| 20260904231657 | 60 | 180 | 0.0 | 0.0 | 0.00 | 0.01 | 0.01 | 98 | |
| 20260904231157 | 60 | 180 | 0.0 | 0.0 | 0.00 | 0.01 | 0.01 | 99 | |
| 20260904230657 | 59 | 180 | 0.0 | 0.0 | 0.00 | 0.01 | 0.01 | 99 | |
| 20260904230157 | 59 | 180 | 0.0 | 0.0 | 0.00 | 0.01 | 0.01 | 99 | |
| 20260904225657 | 59 | 180 | 0.0 | 0.0 | 0.00 | 0.01 | 0.01 | 99 | |
| 20260904225157 | 59 | 180 | 0.0 | 0.0 | 0.00 | 0.01 | 0.01 | 100 | |
| 20260904224657 | 59 | 180 | 0.0 | 0.0 | 0.00 | 0.01 | 0.01 | 100 | |
| 20260904224157 | 59 | 180 | 0.0 | 0.0 | 0.00 | 0.01 | 0.01 | 100 | |
| 20260904222657 | 58 | 180 | 0.0 | 0.0 | 0.00 | 0.01 | 0.01 | 100 | |
| 20260904222157 | 58 | 180 | 0.0 | 0.0 | 0.00 | 0.01 | 0.01 | 100 | |
| 20260904221657 | 58 | 180 | 0.0 | 0.0 | 0.00 | 0.01 | 0.01 | 100 | |
| 20260904221157 | 58 | 180 | 0.0 | 0.0 | 0.00 | 0.01 | 0.01 | 100 | |
| 20260904220657 | 58 | 180 | 0.0 | 0.0 | 0.00 | 0.01 | 0.01 | 100 | |
| 20260904220157 | 58 | 180 | 0.0 | 0.0 | 0.00 | 0.01 | 0.01 | 100 | |
| 20260904215657 | 58 | 180 | 0.0 | 0.0 | 0.00 | 0.01 | 0.01 | 100 | |
| 20260904215157 | 58 | 180 | 0.0 | 0.0 | 0.00 | 0.01 | 0.01 | 100 | |
| 20260904214657 | 58 | 180 | 0.0 | 0.0 | 0.00 | 0.01 | 0.01 | 100 | |
| 20260904214157 | 58 | 180 | 0.0 | 0.0 | 0.00 | 0.01 | 0.01 | 100 | |
| 20260904213657 | 58 | 180 | 0.0 | 0.0 | 0.00 | 0.01 | 0.01 | 99 | |
| 20260904213157 | 58 | 180 | 0.0 | 0.0 | 0.00 | 0.01 | 0.01 | 99 | |
| 20260904212657 | 58 | 180 | 0.0 | 0.0 | 0.00 | 0.01 | 0.01 | 99 | |
| 20260904212157 | 59 | 180 | 0.0 | 0.0 | 0.00 | 0.01 | 0.01 | 98 | |
| 20260904211657 | 59 | 180 | 0.0 | 0.0 | 0.00 | 0.01 | 0.01 | 98 | |
| 20260904211157 | 59 | 180 | 0.0 | 0.0 | 0.00 | 0.01 | 0.01 | 98 | |
| 20260904210657 | 59 | 180 | 0.0 | 0.0 | 0.00 | 0.01 | 0.01 | 98 | |
| 20260904210157 | 59 | 180 | 0.0 | 0.0 | 0.00 | 0.01 | 0.01 | 97 | |
| 20260904205657 | 60 | 180 | 0.0 | 0.0 | 0.00 | 0.01 | 0.01 | 97 | |
| 20260904205157 | 60 | 180 | 0.0 | 0.0 | 0.00 | 0.01 | 0.01 | 96 | |
| 20260904204657 | 60 | 180 | 0.0 | 0.0 | 0.00 | 0.01 | 0.01 | 96 | |
| 20260904204158 | 60 | 180 | 0.0 | 0.0 | 0.00 | 0.01 | 0.01 | 96 | |
| 20260904203657 | 61 | 180 | 0.0 | 0.0 | 0.00 | 0.01 | 0.01 | 96 | |
| 20260904203157 | 61 | 180 | 0.0 | 0.0 | 0.01 | 0.01 | 0.01 | 95 | |
| 20260904202658 | 61 | 180 | 0.0 | 0.0 | 0.01 | 0.01 | 0.01 | 95 | |
| 20260904202157 | 62 | 180 | 0.0 | 0.0 | 0.01 | 0.01 | 0.01 | 93 | |
| 20260904201658 | 62 | 180 | 0.0 | 0.0 | 0.01 | 0.01 | 0.01 | 93 | |
| 20260904201157 | 62 | 180 | 0.0 | 0.0 | 0.01 | 0.01 | 0.01 | 89 | |
| 20260904200658 | 62 | 180 | 0.0 | 0.0 | 0.01 | 0.01 | 0.01 | 91 | |
| 20260904200158 | 62 | 180 | 0.0 | 0.0 | 0.01 | 0.01 | 0.01 | 90 | |
| 20260904195658 | 62 | 180 | 0.0 | 0.0 | 0.01 | 0.01 | 0.01 | 91 | |
| 20260904195158 | 62 | 180 | 0.0 | 0.0 | 0.01 | 0.01 | 0.01 | 91 | |
| 20260904194658 | 62 | 180 | 0.0 | 0.0 | 0.01 | 0.01 | 0.01 | 92 | |
| 20260904194158 | 62 | 180 | 0.0 | 0.0 | 0.01 | 0.01 | 0.01 | 92 | |
| 20260904193658 | 62 | 180 | 0.0 | 0.0 | 0.01 | 0.01 | 0.01 | 93 | |
| 20260904193158 | 61 | 180 | 0.0 | 0.0 | 0.00 | 0.00 | 0.00 | 94 | |
| 20260904192658 | 61 | 180 | 0.0 | 0.0 | 0.00 | 0.00 | 0.00 | 95 | |
| 20260904192158 | 61 | 180 | 0.0 | 0.0 | 0.00 | 0.00 | 0.00 | 96 | |
| 20260904191658 | 61 | 180 | 0.0 | 0.0 | 0.00 | 0.00 | 0.00 | 96 | |
| 20260904191158 | 61 | 180 | 0.0 | 0.0 | 0.00 | 0.00 | 0.00 | 96 | |
| 20260904190658 | 61 | 180 | 0.0 | 0.0 | 0.00 | 0.00 | 0.00 | 96 | |
| 20260904190158 | 61 | 180 | 0.0 | 0.0 | 0.00 | 0.00 | 0.00 | 96 | |
| 20260904185658 | 61 | 180 | 0.0 | 0.0 | 0.00 | 0.00 | 0.00 | 97 | |
| 20260904185158 | 61 | 180 | 0.0 | 0.0 | 0.00 | 0.00 | 0.00 | 97 | |
| 20260904184658 | 61 | 180 | 0.0 | 0.0 | 0.00 | 0.00 | 0.00 | 97 | |
| 20260904184158 | 61 | 180 | 0.0 | 0.0 | 0.00 | 0.00 | 0.00 | 98 | |
| 20260904183658 | 61 | 180 | 0.0 | 0.0 | 0.00 | 0.00 | 0.00 | 97 | |
| 20260904183158 | 61 | 180 | 0.0 | 0.0 | 0.00 | 0.00 | 0.00 | 98 | |
| 20260904182658 | 62 | 180 | 0.0 | 0.0 | 0.00 | 0.00 | 0.00 | 97 | |
| 20260904182158 | 62 | 180 | 0.0 | 0.0 | 0.00 | 0.00 | 0.00 | 97 | |
| 20260904181658 | 62 | 180 | 0.0 | 0.0 | 0.00 | 0.00 | 0.00 | 97 | |
| 20260904181158 | 62 | 180 | 0.0 | 0.0 | 0.00 | 0.00 | 0.00 | 97 | |
| 20260904180658 | 63 | 180 | 0.0 | 0.0 | 0.00 | 0.00 | 0.00 | 97 | |
| 20260904180158 | 63 | 180 | 0.0 | 0.0 | 0.00 | 0.00 | 0.00 | 96 | |
| 20260904175658 | 63 | 180 | 0.0 | 0.0 | 0.00 | 0.00 | 0.00 | 96 | |
| 20260904175158 | 64 | 180 | 0.0 | 0.0 | 0.00 | 0.00 | 0.00 | 95 | |
| 20260904174658 | 64 | 180 | 0.0 | 0.0 | 0.00 | 0.00 | 0.00 | 95 | |
| 20260904174158 | 64 | 180 | 0.0 | 0.0 | 0.00 | 0.00 | 0.00 | 95 | |
| 20260904173658 | 64 | 180 | 0.0 | 0.0 | 0.00 | 0.00 | 0.00 | 95 | |
| 20260904173158 | 65 | 180 | 0.0 | 0.0 | 0.00 | 0.00 | 0.00 | 95 | |
| 20260904172658 | 65 | 180 | 0.0 | 0.0 | 0.00 | 0.00 | 0.00 | 93 | |
| 20260904172158 | 66 | 180 | 0.0 | 0.0 | 0.00 | 0.00 | 0.00 | 92 | |
| 20260904171658 | 66 | 180 | 0.0 | 0.0 | 0.00 | 0.00 | 0.00 | 91 | |
| 20260904171158 | 66 | 180 | 0.0 | 0.0 | 0.00 | 0.00 | 0.00 | 91 | |
| 20260904170658 | 67 | 180 | 0.0 | 0.0 | 0.00 | 0.00 | 0.00 | 88 | |
| 20260904170158 | 67 | 180 | 0.0 | 0.0 | 0.00 | 0.00 | 0.00 | 88 | |
| 20260904165658 | 68 | 180 | 0.0 | 0.0 | 0.00 | 0.00 | 0.00 | 86 | |
| 20260904165158 | 68 | 180 | 0.0 | 0.0 | 0.00 | 0.00 | 0.00 | 85 | |
| 20260904164658 | 68 | 180 | 0.0 | 0.0 | 0.00 | 0.00 | 0.00 | 84 | |
| 20260904164158 | 69 | 180 | 0.0 | 0.0 | 0.00 | 0.00 | 0.00 | 81 | |
| 20260904163658 | 69 | 180 | 0.0 | 0.0 | 0.00 | 0.00 | 0.00 | 81 | |
| 20260904163158 | 70 | 180 | 0.0 | 0.0 | 0.00 | 0.00 | 0.00 | 76 | |
| 20260904162658 | 70 | 180 | 0.0 | 0.0 | 0.00 | 0.00 | 0.00 | 77 | |
| 20260904162158 | 71 | 180 | 0.0 | 0.0 | 0.00 | 0.00 | 0.00 | 73 | |
| 20260904161658 | 71 | 180 | 0.0 | 0.0 | 0.00 | 0.00 | 0.00 | 71 | |
| 20260904161158 | 71 | 180 | 0.0 | 2.0 | 0.00 | 0.00 | 0.00 | 72 | |
| 20260904160658 | 72 | 180 | 0.0 | 0.0 | 0.00 | 0.00 | 0.00 | 63 | |
| 20260904160158 | 72 | 180 | 0.0 | 0.0 | 0.00 | 0.00 | 0.00 | 63 | |
| 20260904155658 | 73 | 180 | 0.0 | 0.0 | 0.00 | 0.00 | 0.00 | 62 | |
| 20260904155158 | 74 | 180 | 0.0 | 0.0 | 0.00 | 0.00 | 0.00 | 60 | |
| 20260904154658 | 74 | 180 | 0.0 | 0.0 | 0.00 | 0.00 | 0.00 | 56 | |
| 20260904154158 | 75 | 180 | 0.0 | 1.0 | 0.00 | 0.00 | 0.00 | 54 | |
| 20260904153658 | 75 | 180 | 0.0 | 3.0 | 0.00 | 0.00 | 0.00 | 51 | |
| 20260904153158 | 75 | 180 | 0.0 | 4.0 | 0.00 | 0.00 | 0.00 | 52 | |
| 20260904152658 | 75 | 180 | 2.0 | 3.0 | 0.00 | 0.00 | 0.00 | 50 | |
| 20260904152158 | 75 | 180 | 0.0 | 2.0 | 0.00 | 0.00 | 0.00 | 50 | |
| 20260904151658 | 75 | 180 | 0.0 | 7.0 | 0.00 | 0.00 | 0.00 | 49 | |
| 20260904151158 | 75 | 180 | 0.0 | 3.0 | 0.00 | 0.00 | 0.00 | 51 | |
| 20260904150658 | 75 | 180 | 0.0 | 4.0 | 0.00 | 0.00 | 0.00 | 49 | |
| 20260904150158 | 75 | 180 | 0.0 | 4.0 | 0.00 | 0.00 | 0.00 | 50 | |
| 20260904145658 | 75 | 180 | 0.0 | 8.0 | 0.00 | 0.00 | 0.00 | 49 | |
| 20260904145158 | 76 | 180 | 5.0 | 7.0 | 0.00 | 0.00 | 0.00 | 48 | |
| 20260904144658 | 76 | 180 | 2.0 | 8.0 | 0.00 | 0.00 | 0.00 | 47 | |
| 20260904144158 | 76 | 180 | 1.0 | 8.0 | 0.00 | 0.00 | 0.00 | 47 | |
| 20260904143658 | 75 | 180 | 0.0 | 5.0 | 0.00 | 0.00 | 0.00 | 51 | |
| 20260904143206 | 74 | 180 | 3.0 | 9.0 | 0.00 | 0.00 | 0.00 | 51 | |
| 20260904142658 | 74 | 180 | 3.0 | 9.0 | 0.00 | 0.00 | 0.00 | 50 | |
| 20260904142158 | 75 | 180 | 2.0 | 8.0 | 0.00 | 0.00 | 0.00 | 51 | |
| 20260904141658 | 75 | 180 | 3.0 | 7.0 | 0.00 | 0.00 | 0.00 | 50 | |
| 20260904141158 | 75 | 180 | 0.0 | 9.0 | 0.00 | 0.00 | 0.00 | 49 | |
| 20260904140658 | 76 | 180 | 2.0 | 5.0 | 0.00 | 0.00 | 0.00 | 49 | |
| 20260904140159 | 76 | 180 | 0.0 | 9.0 | 0.00 | 0.00 | 0.00 | 47 | |
| 20260904135659 | 76 | 180 | 1.0 | 8.0 | 0.00 | 0.00 | 0.00 | 48 | |
| 20260904135159 | 76 | 180 | 2.0 | 7.0 | 0.00 | 0.00 | 0.00 | 47 | |
| 20260904134659 | 76 | 180 | 4.0 | 7.0 | 0.00 | 0.00 | 0.00 | 48 | |
| 20260904134159 | 76 | 180 | 1.0 | 5.0 | 0.00 | 0.00 | 0.00 | 48 | |
| 20260904133659 | 76 | 180 | 2.0 | 8.0 | 0.00 | 0.00 | 0.00 | 48 | |
| 20260904133159 | 76 | 180 | 3.0 | 5.0 | 0.00 | 0.00 | 0.00 | 48 | |
| 20260904132659 | 75 | 180 | 1.0 | 9.0 | 0.00 | 0.00 | 0.00 | 52 | |
| 20260904132159 | 75 | 180 | 1.0 | 9.0 | 0.00 | 0.00 | 0.00 | 53 | |
| 20260904131659 | 75 | 180 | 2.0 | 8.0 | 0.00 | 0.00 | 0.00 | 54 | |
| 20260904131159 | 74 | 180 | 4.0 | 4.0 | 0.00 | 0.00 | 0.00 | 57 | |
| 20260904130659 | 73 | 180 | 1.0 | 8.0 | 0.00 | 0.00 | 0.00 | 56 | |
| 20260904130159 | 73 | 180 | 2.0 | 6.0 | 0.00 | 0.00 | 0.00 | 57 | |
| 20260904125659 | 73 | 180 | 4.0 | 7.0 | 0.00 | 0.00 | 0.00 | 56 | |
| 20260904125159 | 73 | 180 | 0.0 | 6.0 | 0.00 | 0.00 | 0.00 | 56 | |
| 20260904124659 | 73 | 180 | 3.0 | 6.0 | 0.00 | 0.00 | 0.00 | 57 | |
| 20260904124159 | 72 | 180 | 0.0 | 9.0 | 0.00 | 0.00 | 0.00 | 56 | |
| 20260904123659 | 72 | 180 | 1.0 | 7.0 | 0.00 | 0.00 | 0.00 | 55 | |
| 20260904123159 | 72 | 180 | 5.0 | 8.0 | 0.00 | 0.00 | 0.00 | 53 | |
| 20260904122659 | 73 | 180 | 1.0 | 11.0 | 0.00 | 0.00 | 0.00 | 53 | |
| 20260904122159 | 74 | 180 | 0.0 | 9.0 | 0.00 | 0.00 | 0.00 | 52 | |
| 20260904121659 | 74 | 180 | 4.0 | 6.0 | 0.00 | 0.00 | 0.00 | 54 | |
| 20260904121159 | 73 | 180 | 5.0 | 8.0 | 0.00 | 0.00 | 0.00 | 54 | |
| 20260904120659 | 73 | 180 | 2.0 | 8.0 | 0.00 | 0.00 | 0.00 | 53 | |
| 20260904120159 | 73 | 180 | 5.0 | 8.0 | 0.00 | 0.00 | 0.00 | 54 | |
| 20260904115659 | 73 | 180 | 2.0 | 10.0 | 0.00 | 0.00 | 0.00 | 54 | |
| 20260904115159 | 72 | 180 | 6.0 | 9.0 | 0.00 | 0.00 | 0.00 | 55 | |
| 20260904114659 | 73 | 180 | 4.0 | 8.0 | 0.00 | 0.51 | 0.00 | 54 | |
| 20260904114159 | 72 | 180 | 0.0 | 8.0 | 0.00 | 0.51 | 0.00 | 57 | |
| 20260904113659 | 72 | 180 | 0.0 | 8.0 | 0.00 | 0.51 | 0.00 | 59 | |
| 20260904113218 | 72 | 180 | 5.0 | 10.0 | 0.00 | 0.51 | 0.00 | 57 | |
| 20260904112659 | 71 | 180 | 5.0 | 9.0 | 0.00 | 0.51 | 0.00 | 57 | |
| 20260904112159 | 72 | 180 | 2.0 | 7.0 | 0.00 | 0.51 | 0.00 | 57 | |
| 20260904111659 | 71 | 180 | 4.0 | 14.0 | 0.00 | 0.51 | 0.00 | 58 | |
| 20260904111159 | 72 | 180 | 8.0 | 9.0 | 0.00 | 0.51 | 0.00 | 60 | |
| 20260904110659 | 71 | 180 | 3.0 | 8.0 | 0.00 | 0.51 | 0.00 | 60 | |
| 20260904110225 | 71 | 180 | 5.0 | 12.0 | 0.00 | 0.51 | 0.00 | 61 | |
| 20260904105659 | 71 | 180 | 1.0 | 8.0 | 0.00 | 0.51 | 0.00 | 62 | |
| 20260904105159 | 71 | 180 | 1.0 | 8.0 | 0.00 | 0.51 | 0.00 | 61 | |
| 20260904104659 | 71 | 180 | 0.0 | 5.0 | 0.00 | 0.51 | 0.00 | 67 | |
| 20260904104159 | 71 | 180 | 3.0 | 7.0 | 0.00 | 0.51 | 0.00 | 64 | |
| 20260904103659 | 70 | 180 | 2.0 | 9.0 | 0.00 | 0.51 | 0.00 | 67 | |
| 20260904103159 | 70 | 180 | 2.0 | 7.0 | 0.00 | 0.51 | 0.00 | 69 | |
| 20260904102659 | 70 | 180 | 1.0 | 8.0 | 0.00 | 0.51 | 0.00 | 67 | |
| 20260904102159 | 70 | 180 | 2.0 | 7.0 | 0.00 | 0.51 | 0.00 | 65 | |
| 20260904101659 | 70 | 180 | 2.0 | 5.0 | 0.00 | 0.51 | 0.00 | 69 | |
| 20260904101159 | 70 | 180 | 0.0 | 7.0 | 0.00 | 0.51 | 0.00 | 68 | |
| 20260904100659 | 70 | 180 | 0.0 | 6.0 | 0.00 | 0.51 | 0.00 | 70 | |
| 20260904100159 | 69 | 180 | 2.0 | 6.0 | 0.00 | 0.51 | 0.00 | 68 | |
| 20260904095659 | 69 | 180 | 1.0 | 5.0 | 0.00 | 0.51 | 0.00 | 69 | |
| 20260904095159 | 69 | 180 | 0.0 | 7.0 | 0.00 | 0.51 | 0.00 | 70 | |
| 20260904094659 | 69 | 180 | 0.0 | 8.0 | 0.00 | 0.51 | 0.00 | 74 | |
| 20260904094159 | 69 | 180 | 6.0 | 16.0 | 0.00 | 0.51 | 0.00 | 70 | |
| 20260904093659 | 69 | 180 | 5.0 | 8.0 | 0.00 | 0.51 | 0.00 | 70 | |
| 20260904093159 | 68 | 180 | 7.0 | 10.0 | 0.00 | 0.51 | 0.00 | 75 | |
| 20260904092659 | 69 | 180 | 0.0 | 5.0 | 0.00 | 0.51 | 0.00 | 74 | |
| 20260904092159 | 68 | 180 | 2.0 | 9.0 | 0.00 | 0.51 | 0.00 | 73 | |
| 20260904091659 | 68 | 180 | 4.0 | 5.0 | 0.00 | 0.51 | 0.00 | 77 | |
| 20260904091159 | 68 | 180 | 3.0 | 7.0 | 0.00 | 0.51 | 0.00 | 75 | |
| 20260904090715 | 68 | 180 | 1.0 | 4.0 | 0.00 | 0.51 | 0.00 | 78 | |
| 20260904090159 | 68 | 180 | 2.0 | 4.0 | 0.00 | 0.51 | 0.00 | 78 | |
| 20260904085659 | 68 | 180 | 0.0 | 4.0 | 0.00 | 0.51 | 0.00 | 81 | |
| 20260904085201 | 68 | 180 | 1.0 | 6.0 | 0.00 | 0.51 | 0.00 | 80 | |
| 20260904084659 | 67 | 180 | 0.0 | 4.0 | 0.00 | 0.51 | 0.51 | 81 | |
| 20260904084159 | 66 | 180 | 0.0 | 5.0 | 0.00 | 0.51 | 0.51 | 86 | |
| 20260904083659 | 66 | 180 | 0.0 | 5.0 | 0.00 | 0.51 | 0.51 | 87 | |
| 20260904083159 | 65 | 180 | 0.0 | 3.0 | 0.00 | 0.51 | 0.51 | 88 | |
| 20260904082659 | 65 | 180 | 0.0 | 3.0 | 0.00 | 0.51 | 0.51 | 92 | |
| 20260904082159 | 65 | 180 | 0.0 | 2.0 | 0.00 | 0.51 | 0.51 | 92 | |
| 20260904081659 | 64 | 180 | 2.0 | 2.0 | 0.00 | 0.51 | 0.51 | 93 | |
| 20260904081159 | 64 | 180 | 0.0 | 1.0 | 0.00 | 0.51 | 0.51 | 94 | |
| 20260904080659 | 64 | 180 | 0.0 | 1.0 | 0.00 | 0.51 | 0.51 | 94 |